Tri-Cities, TN

8:53 PM EST on December 11, 2017 (GMT -0500)
Tri-Cities Regional Tennessee / Virginia

Weather History for KTRI - January, 2005

Change the Weather History Date:

Wednesday, January 19, 2005

  Actual Average Record
Temperature  
Mean Temperature 26 °F 35 °F  
Max Temperature 37 °F 45 °F 66 °F (1951)
Min Temperature 14 °F 25 °F -8 °F (1994)
Degree Days  
Heating Degree Days 40 30  
Month to date heating degree days 570  
Since 1 July heating degree days 2299  
Cooling Degree Days 0 0  
Month to date cooling degree days 0  
Year to date cooling degree days 0  
Moisture  
Dew Point 13 °F    
Average Humidity 55    
Maximum Humidity 80    
Minimum Humidity 41    
Precipitation  
Precipitation 0.00 in 0.12 in 1.33 in (2001)
Month to date precipitation 2.04  
Year to date precipitation 2.04  
Snow  
Snow 0.00 in 0.20 in - ()
Month to date snowfall 2.9  
Since 1 July snowfall 5.6  
Snow Depth -    
Sea Level Pressure  
Sea Level Pressure 30.24 in    
Wind  
Wind Speed 5 mph (WSW)    
Max Wind Speed 20 mph    
Max Gust Speed 28 mph    
Visibility 10 miles    
Events Snow    
T = Trace of Precipitation, MM = Missing Value Source: NWS Daily Summary

Daily Weather History Graph

Daily Weather History Graph

Search for Another Location

Airport or City:

Trip Planner

Search our weather history database for the weather conditions in past years. The results will help you decide how hot, cold, wet, or windy it might be!

Date:

Astronomy

Jan. 19, 2005 Rise Set
Actual Time 7:39 AM EST 5:42 PM EST
Civil Twilight 7:11 AM EST 6:10 PM EST
Nautical Twilight 6:39 AM EST 6:41 PM EST
Astronomical Twilight 6:08 AM EST 7:12 PM EST
Moon 1:03 PM EST (1/19) 2:57 AM EST (1/19)
Length of Visible Light 10h 58m
Length of Day
10h 03m
Waxing Gibbous, 73% of the Moon is Illuminated
Jan 19
Waxing Gibbous
Jan 25
Full
Feb 2
Last Quarter
Feb 8
New
Feb 15
First Quarter

Hourly Weather History & Observations

Time (EST) Temp. Windchill Dew Point Humidity Pressure Visibility Wind Dir Wind Speed Gust Speed Precip Events Conditions
12:53 AM 14.0 °F 6.5 °F 7.0 °F 74% 30.47 in 10.0 mi East 4.6 mph - N/A   Clear
1:53 AM 15.1 °F - 10.0 °F 80% 30.44 in 10.0 mi Calm Calm - N/A   Clear
2:53 AM 17.1 °F - 9.0 °F 71% 30.42 in 10.0 mi Calm Calm - N/A   Clear
3:53 AM 18.0 °F 12.7 °F 10.0 °F 71% 30.40 in 10.0 mi NNE 3.5 mph - N/A   Clear
4:53 AM 19.0 °F - 10.0 °F 68% 30.37 in 10.0 mi Calm Calm - N/A   Scattered Clouds
5:53 AM 19.0 °F 13.9 °F 10.0 °F 68% 30.33 in 10.0 mi NE 3.5 mph - N/A   Overcast
6:53 AM 21.0 °F - 10.9 °F 65% 30.31 in 10.0 mi Calm Calm - N/A   Overcast
7:53 AM 23.0 °F 17.0 °F 12.0 °F 63% 30.32 in 10.0 mi Variable 4.6 mph - N/A   Overcast
8:53 AM 25.0 °F - 12.9 °F 60% 30.29 in 9.0 mi Calm Calm - 0.00 in Snow Light Snow
9:53 AM 26.1 °F 20.5 °F 15.1 °F 63% 30.27 in 10.0 mi NNW 4.6 mph - 0.00 in   Overcast
10:53 AM 28.9 °F 21.9 °F 12.9 °F 51% 30.25 in 7.0 mi SW 6.9 mph - 0.00 in Snow Light Snow
11:53 AM 30.9 °F 18.7 °F 12.0 °F 46% 30.21 in 10.0 mi WSW 19.6 mph 27.6 mph 0.00 in   Overcast
12:53 PM 32.0 °F 22.1 °F 12.9 °F 45% 30.18 in 10.0 mi West 13.8 mph - N/A   Overcast
1:53 PM 34.0 °F 22.7 °F 12.9 °F 42% 30.13 in 10.0 mi WSW 19.6 mph 25.3 mph N/A   Overcast
2:53 PM 35.1 °F 25.9 °F 14.0 °F 42% 30.11 in 10.0 mi WSW 13.8 mph - N/A   Overcast
3:53 PM 36.0 °F 28.5 °F 14.0 °F 41% 30.11 in 10.0 mi WSW 10.4 mph - N/A   Overcast
4:53 PM 37.0 °F 29.3 °F 15.1 °F 41% 30.11 in 10.0 mi WSW 11.5 mph - N/A   Overcast
5:53 PM 36.0 °F 30.3 °F 16.0 °F 44% 30.13 in 10.0 mi West 6.9 mph - N/A   Overcast
6:53 PM 36.0 °F 33.3 °F 16.0 °F 44% 30.16 in 10.0 mi WSW 3.5 mph - N/A   Overcast
7:53 PM 35.1 °F 31.0 °F 17.1 °F 48% 30.17 in 10.0 mi WSW 4.6 mph - N/A   Overcast
8:53 PM 34.0 °F 29.8 °F 18.0 °F 52% 30.16 in 10.0 mi SW 4.6 mph - N/A   Overcast
9:53 PM 34.0 °F 29.8 °F 16.0 °F 48% 30.14 in 10.0 mi SW 4.6 mph - N/A   Overcast
10:53 PM 33.1 °F 30.0 °F 18.0 °F 54% 30.15 in 10.0 mi SW 3.5 mph - N/A   Overcast
11:53 PM 34.0 °F 29.8 °F 17.1 °F 50% 30.14 in 10.0 mi SW 4.6 mph - N/A   Overcast